Location: Baumgartsau
(48.4586°N, 14.0864°E)
Time: 01:25:57
(UTC+00:00)

SL-16 R/B - Pass Details

Date: 06 August 2020
Orbit: 843 x 845 km, 71.0° (Epoch: 26 September)

Event Time Altitude Azimuth Distance (km) Brightness Sun altitude
Rises 23:47:49 0° 313° (NW) 3,414 5.8 -24.6°
Reaches altitude 10° 23:53:06 10° 272° (W) 2,470 4.5 -24.5°
Enters shadow 23:53:34 10° 267° (W) 2,459 4.5 -24.5°
